TimeEDT,TemperatureF,Dew PointF,Humidity,Sea Level PressureIn,VisibilityMPH,Wind Direction,Wind SpeedMPH,Gust SpeedMPH,PrecipitationIn,Events,Conditions,WindDirDegrees,DateUTC
12:15 AM,26.1,21.6,83,30.25,10.0,Calm,Calm,-,N/A,,Clear,0,2013-03-29 04:15:00
12:35 AM,23.0,19.9,88,30.25,10.0,West,3.5,-,N/A,,Clear,280,2013-03-29 04:35:00
12:55 AM,28.4,22.5,78,30.25,10.0,West,4.6,-,N/A,,Clear,270,2013-03-29 04:55:00
1:15 AM,28.4,21.4,75,30.25,10.0,West,5.8,-,N/A,,Clear,270,2013-03-29 05:15:00
1:35 AM,28.4,21.0,74,30.25,10.0,West,4.6,-,N/A,,Clear,270,2013-03-29 05:35:00
1:55 AM,28.4,21.2,74,30.25,10.0,West,5.8,-,N/A,,Clear,260,2013-03-29 05:55:00
2:15 AM,28.4,21.2,74,30.25,10.0,West,5.8,-,N/A,,Clear,260,2013-03-29 06:15:00
2:34 AM,28.4,21.2,74,30.25,10.0,West,4.6,-,N/A,,Clear,260,2013-03-29 06:34:00
2:55 AM,28.4,21.2,74,30.25,10.0,West,5.8,-,N/A,,Clear,260,2013-03-29 06:55:00
3:15 AM,28.4,21.2,74,30.24,10.0,West,5.8,-,N/A,,Clear,260,2013-03-29 07:15:00
3:34 AM,28.2,21.0,74,30.24,10.0,West,4.6,-,N/A,,Clear,260,2013-03-29 07:34:00
3:55 AM,25.3,19.6,79,30.24,10.0,West,3.5,-,N/A,,Clear,260,2013-03-29 07:55:00
4:15 AM,22.5,18.1,83,30.24,10.0,Calm,Calm,-,N/A,,Clear,0,2013-03-29 08:15:00
4:35 AM,22.1,18.5,86,30.24,10.0,Calm,Calm,-,N/A,,Clear,0,2013-03-29 08:35:00
4:55 AM,22.1,18.5,86,30.24,10.0,West,3.5,-,N/A,,Clear,260,2013-03-29 08:55:00
5:15 AM,22.1,18.7,87,30.24,10.0,Calm,Calm,-,N/A,,Clear,0,2013-03-29 09:15:00
5:35 AM,21.6,18.0,86,30.24,10.0,West,3.5,-,N/A,,Clear,260,2013-03-29 09:35:00
5:55 AM,21.7,18.7,88,30.24,10.0,West,4.6,-,N/A,,Clear,260,2013-03-29 09:55:00
6:15 AM,21.2,18.1,88,30.24,10.0,West,3.5,-,N/A,,Clear,260,2013-03-29 10:15:00
6:35 AM,20.7,17.6,88,30.24,10.0,Calm,Calm,-,N/A,,Clear,0,2013-03-29 10:35:00
6:55 AM,18.5,16.2,91,30.24,10.0,Calm,Calm,-,N/A,,Clear,0,2013-03-29 10:55:00
7:14 AM,18.3,16.2,91,30.24,10.0,Calm,Calm,-,N/A,,Clear,0,2013-03-29 11:14:00
7:35 AM,18.5,17.4,96,30.25,10.0,Calm,Calm,-,N/A,,Clear,0,2013-03-29 11:35:00
7:55 AM,17.8,16.3,94,30.25,10.0,Calm,Calm,-,N/A,,Clear,0,2013-03-29 11:55:00
8:14 AM,20.1,19.0,96,30.25,10.0,Calm,Calm,-,N/A,,Clear,0,2013-03-29 12:14:00
8:35 AM,23.2,20.8,91,30.26,10.0,Calm,Calm,-,N/A,,Clear,0,2013-03-29 12:35:00
8:54 AM,27.7,24.3,87,30.26,10.0,Calm,Calm,-,N/A,,Clear,0,2013-03-29 12:54:00
9:15 AM,29.3,22.1,75,30.26,10.0,Calm,Calm,-,N/A,,Clear,0,2013-03-29 13:15:00
9:35 AM,33.3,24.6,71,30.26,10.0,Calm,Calm,-,N/A,,Clear,0,2013-03-29 13:35:00
9:55 AM,33.3,24.6,71,30.26,10.0,Calm,Calm,-,N/A,,Clear,0,2013-03-29 13:55:00
10:15 AM,35.8,22.8,59,30.26,10.0,Calm,Calm,-,N/A,,Clear,0,2013-03-29 14:15:00
10:35 AM,38.3,22.1,52,30.26,10.0,NNW,5.8,-,N/A,,Clear,340,2013-03-29 14:35:00
10:55 AM,38.3,20.7,49,30.26,10.0,North,5.8,-,N/A,,Clear,350,2013-03-29 14:55:00
11:15 AM,39.2,19.4,45,30.26,10.0,North,3.5,-,N/A,,Clear,10,2013-03-29 15:15:00
11:35 AM,40.3,19.6,44,30.26,10.0,NNW,5.8,-,N/A,,Clear,340,2013-03-29 15:35:00
11:55 AM,40.3,19.6,44,30.26,10.0,NNW,8.1,-,N/A,,Clear,340,2013-03-29 15:55:00
12:15 PM,40.8,19.0,42,30.26,10.0,NNW,4.6,-,N/A,,Clear,330,2013-03-29 16:15:00
12:55 PM,42.1,19.0,40,30.25,10.0,NW,9.2,-,N/A,,Clear,310,2013-03-29 16:55:00
1:15 PM,42.4,19.8,40,30.24,10.0,NW,9.2,-,N/A,,Clear,310,2013-03-29 17:15:00
1:35 PM,42.8,18.0,37,30.24,10.0,West,6.9,-,N/A,,Clear,270,2013-03-29 17:35:00
1:55 PM,43.0,17.8,36,30.23,10.0,Calm,Calm,-,N/A,,Clear,0,2013-03-29 17:55:00
2:15 PM,44.1,19.9,38,30.23,10.0,NW,11.5,-,N/A,,Clear,320,2013-03-29 18:15:00
2:34 PM,43.2,18.1,37,30.23,10.0,NW,8.1,-,N/A,,Clear,310,2013-03-29 18:34:00
2:55 PM,42.8,18.7,38,30.22,10.0,NNW,8.1,-,N/A,,Clear,340,2013-03-29 18:55:00
3:15 PM,45.0,19.9,37,30.21,10.0,WNW,11.5,16.1,N/A,,Clear,300,2013-03-29 19:15:00
3:34 PM,43.2,19.9,40,30.21,10.0,NW,11.5,19.6,N/A,,Clear,320,2013-03-29 19:34:00
3:55 PM,44.1,18.9,37,30.21,10.0,NW,12.7,-,N/A,,Clear,310,2013-03-29 19:55:00
4:15 PM,44.6,17.1,33,30.20,10.0,West,5.8,16.1,N/A,,Clear,280,2013-03-29 20:15:00
4:35 PM,45.3,17.4,33,30.20,10.0,NW,10.4,-,N/A,,Clear,310,2013-03-29 20:35:00
4:55 PM,44.1,17.1,34,30.20,10.0,WNW,12.7,19.6,N/A,,Clear,290,2013-03-29 20:55:00
5:15 PM,45.7,18.5,34,30.20,10.0,WNW,10.4,-,N/A,,Clear,300,2013-03-29 21:15:00
5:35 PM,45.7,18.0,33,30.20,10.0,NW,8.1,-,N/A,,Clear,310,2013-03-29 21:35:00
5:55 PM,43.9,15.3,32,30.20,10.0,West,5.8,-,N/A,,Clear,280,2013-03-29 21:55:00
6:15 PM,43.3,15.8,33,30.20,10.0,NW,9.2,-,N/A,,Clear,310,2013-03-29 22:15:00
6:35 PM,42.8,15.3,33,30.20,10.0,WNW,8.1,-,N/A,,Clear,300,2013-03-29 22:35:00
6:55 PM,42.8,14.0,31,30.20,10.0,West,8.1,-,N/A,,Clear,280,2013-03-29 22:55:00
7:14 PM,41.2,16.7,37,30.20,10.0,WNW,5.8,-,N/A,,Clear,290,2013-03-29 23:14:00
7:35 PM,39.6,16.7,40,30.20,10.0,WNW,4.6,-,N/A,,Clear,300,2013-03-29 23:35:00
7:55 PM,39.4,14.7,37,30.20,10.0,WNW,3.5,-,N/A,,Clear,300,2013-03-29 23:55:00
8:14 PM,38.3,15.3,39,30.19,10.0,WNW,3.5,-,N/A,,Clear,300,2013-03-30 00:14:00
8:35 PM,34.0,19.2,55,30.20,10.0,Calm,Calm,-,N/A,,Clear,0,2013-03-30 00:35:00
8:55 PM,33.3,19.4,57,30.20,10.0,WSW,3.5,-,N/A,,Clear,250,2013-03-30 00:55:00
9:15 PM,31.5,20.5,64,30.20,10.0,Calm,Calm,-,N/A,,Clear,0,2013-03-30 01:15:00
9:35 PM,29.7,20.8,70,30.21,10.0,Calm,Calm,-,N/A,,Clear,0,2013-03-30 01:35:00
9:55 PM,28.4,21.0,74,30.21,10.0,Calm,Calm,-,N/A,,Clear,0,2013-03-30 01:55:00
10:15 PM,28.4,20.8,73,30.21,10.0,Calm,Calm,-,N/A,,Clear,0,2013-03-30 02:15:00
10:35 PM,28.4,22.1,77,30.20,10.0,Calm,Calm,-,N/A,,Clear,0,2013-03-30 02:35:00
10:54 PM,26.6,19.6,75,30.20,10.0,Calm,Calm,-,N/A,,Clear,0,2013-03-30 02:54:00
11:15 PM,26.1,20.3,79,30.21,10.0,Calm,Calm,-,N/A,,Clear,0,2013-03-30 03:15:00
11:35 PM,26.6,20.1,77,30.20,10.0,Calm,Calm,-,N/A,,Clear,0,2013-03-30 03:35:00
11:54 PM,25.9,21.0,82,30.20,10.0,Calm,Calm,-,N/A,,Clear,0,2013-03-30 03:54:00